User: anonymous   Login
Location: Bottens
(46.6171°N, 6.6605°E)
Time: 05:43:53
(UTC+00:00)
Language:

Cosmos 1825 - Orbit

View from above orbital plane
View from above orbital plane
View from above satellite
View from above satellite

Ground track
Ground track

The orbit data is extracted from the following two-line orbital elements,

1 17566U 87024A   21261.54106735  .00001122  00000-0  49400-4 0  9996
2 17566  82.5075 186.6996 0003528 166.4371 193.6959 15.20837003889629
Epoch (UTC): 18 September 2021 12:59:08
Eccentricity: 0.0003528
inclination: 82.5075°
perigee height: 501 km
apogee height: 506 km
right ascension of ascending node: 186.6996°
argument of perigee: 166.4371°
revolutions per day: 15.20837003
mean anomaly at epoch: 193.6959°
orbit number at epoch: 88962

The dashed part of the orbit path shows where the satellite is in the earth's shadow,  

DLR